Time,TemperatureF,DewpointF,PressureIn,WindDirection,WindDirectionDegrees,WindSpeedMPH,WindSpeedGustMPH,Humidity,HourlyPrecipIn,Conditions,Clouds,dailyrainin,SoftwareType,DateUTC
2013-07-11 00:05:00,76.2,73.0,29.82,West,276,0.0,-999.0,89,-99.99,,,0.02,weatherlink.com 1.10,2013-07-11 04:05:00,
2013-07-11 00:20:00,75.8,73.0,29.82,West,277,0.0,-999.0,90,-99.99,,,0.02,weatherlink.com 1.10,2013-07-11 04:20:00,
2013-07-11 00:35:00,75.5,73.0,29.82,West,277,0.0,-999.0,91,-99.99,,,0.02,weatherlink.com 1.10,2013-07-11 04:35:00,
2013-07-11 00:51:00,75.4,73.0,29.82,West,270,0.0,-999.0,91,-99.99,,,0.02,weatherlink.com 1.10,2013-07-11 04:51:00,
2013-07-11 01:06:00,75.1,72.0,29.82,West,270,0.0,-999.0,91,-99.99,,,0.02,weatherlink.com 1.10,2013-07-11 05:06:00,
2013-07-11 01:21:00,74.7,72.0,29.81,West,270,0.0,-999.0,91,-99.99,,,0.00,weatherlink.com 1.10,2013-07-11 05:21:00,
2013-07-11 01:36:00,74.3,72.0,29.81,West,270,0.0,-999.0,92,-99.99,,,0.00,weatherlink.com 1.10,2013-07-11 05:36:00,
2013-07-11 01:52:00,74.0,72.0,29.81,West,270,0.0,-999.0,92,-99.99,,,0.00,weatherlink.com 1.10,2013-07-11 05:52:00,
2013-07-11 02:07:00,73.8,72.0,29.81,West,270,0.0,-999.0,93,-99.99,,,0.00,weatherlink.com 1.10,2013-07-11 06:07:00,
2013-07-11 02:22:00,73.8,72.0,29.81,West,270,0.0,-999.0,93,-99.99,,,0.00,weatherlink.com 1.10,2013-07-11 06:22:00,
2013-07-11 02:38:00,73.8,72.0,29.81,West,270,0.0,-999.0,94,-99.99,,,0.00,weatherlink.com 1.10,2013-07-11 06:38:00,
2013-07-11 02:53:00,73.7,72.0,29.80,West,270,0.0,-999.0,94,-99.99,,,0.00,weatherlink.com 1.10,2013-07-11 06:53:00,
2013-07-11 03:12:00,73.8,72.0,29.80,West,270,0.0,-999.0,94,-99.99,,,0.00,weatherlink.com 1.10,2013-07-11 07:12:00,
2013-07-11 03:23:00,73.8,72.0,29.80,West,270,0.0,-999.0,94,-99.99,,,0.00,weatherlink.com 1.10,2013-07-11 07:23:00,
2013-07-11 03:38:00,73.9,72.0,29.80,West,270,1.0,-999.0,94,-99.99,,,0.00,weatherlink.com 1.10,2013-07-11 07:38:00,
2013-07-11 03:55:00,74.1,72.0,29.80,West,270,0.0,-999.0,94,-99.99,,,0.00,weatherlink.com 1.10,2013-07-11 07:55:00,
2013-07-11 04:10:00,74.0,72.0,29.81,West,270,0.0,-999.0,94,-99.99,,,0.00,weatherlink.com 1.10,2013-07-11 08:10:00,
2013-07-11 04:25:00,73.8,72.0,29.81,NNW,342,1.0,-999.0,94,-99.99,,,0.00,weatherlink.com 1.10,2013-07-11 08:25:00,
2013-07-11 04:40:00,73.7,72.0,29.81,WNW,288,0.0,-999.0,94,-99.99,,,0.00,weatherlink.com 1.10,2013-07-11 08:40:00,
2013-07-11 04:55:00,73.6,72.0,29.81,WNW,288,1.0,-999.0,94,-99.99,,,0.00,weatherlink.com 1.10,2013-07-11 08:55:00,
2013-07-11 05:10:00,73.3,72.0,29.81,WNW,288,0.0,-999.0,94,-99.99,,,0.00,weatherlink.com 1.10,2013-07-11 09:10:00,
2013-07-11 05:25:00,73.1,71.0,29.81,WNW,288,0.0,-999.0,94,-99.99,,,0.00,weatherlink.com 1.10,2013-07-11 09:25:00,
2013-07-11 05:41:00,73.0,71.0,29.81,WNW,288,0.0,-999.0,94,-99.99,,,0.00,weatherlink.com 1.10,2013-07-11 09:41:00,
2013-07-11 05:56:00,72.9,71.0,29.81,WNW,288,0.0,-999.0,94,-99.99,,,0.00,weatherlink.com 1.10,2013-07-11 09:56:00,
2013-07-11 06:12:00,73.0,71.0,29.83,WNW,294,2.0,-999.0,94,-99.99,,,0.00,weatherlink.com 1.10,2013-07-11 10:12:00,
2013-07-11 06:26:00,73.1,71.0,29.83,West,281,0.0,-999.0,92,-99.99,,,0.00,weatherlink.com 1.10,2013-07-11 10:26:00,
2013-07-11 07:56:00,72.3,69.0,29.85,SE,146,0.0,-999.0,89,-99.99,,,0.00,weatherlink.com 1.10,2013-07-11 11:56:00,
2013-07-11 08:13:00,72.1,68.0,29.86,SE,146,0.0,-999.0,88,-99.99,,,0.00,weatherlink.com 1.10,2013-07-11 12:13:00,
2013-07-11 08:28:00,71.9,68.0,29.86,SSW,197,0.0,-999.0,87,-99.99,,,0.00,weatherlink.com 1.10,2013-07-11 12:28:00,
2013-07-11 08:43:00,72.0,68.0,29.86,North,355,0.0,-999.0,88,-99.99,,,0.00,weatherlink.com 1.10,2013-07-11 12:43:00,
2013-07-11 09:15:00,71.9,68.0,29.87,NNW,342,0.0,-999.0,88,-99.99,,,0.00,weatherlink.com 1.10,2013-07-11 13:15:00,
2013-07-11 09:30:00,72.1,68.0,29.88,NNW,342,1.0,-999.0,86,-99.99,,,0.00,weatherlink.com 1.10,2013-07-11 13:30:00,
2013-07-11 09:45:00,72.1,67.0,29.88,North,355,0.0,-999.0,85,-99.99,,,0.00,weatherlink.com 1.10,2013-07-11 13:45:00,
2013-07-11 10:15:00,72.2,68.0,29.88,NNW,336,1.0,-999.0,86,-99.99,,,0.00,weatherlink.com 1.10,2013-07-11 14:15:00,
2013-07-11 11:01:00,73.6,68.0,29.88,West,265,0.0,-999.0,83,-99.99,,,0.00,weatherlink.com 1.10,2013-07-11 15:01:00,
2013-07-11 11:16:00,74.5,68.0,29.88,West,264,0.0,-999.0,81,-99.99,,,0.00,weatherlink.com 1.10,2013-07-11 15:16:00,
2013-07-11 11:31:00,75.3,69.0,29.88,North,360,0.0,-999.0,81,-99.99,,,0.00,weatherlink.com 1.10,2013-07-11 15:31:00,
2013-07-11 11:47:00,75.4,69.0,29.87,West,273,0.0,-999.0,79,-99.99,,,0.00,weatherlink.com 1.10,2013-07-11 15:47:00,
2013-07-11 12:02:00,76.4,69.0,29.88,NNE,16,4.0,-999.0,77,-99.99,,,0.00,weatherlink.com 1.10,2013-07-11 16:02:00,
2013-07-11 12:17:00,77.0,68.0,29.87,NNE,28,1.0,-999.0,74,-99.99,,,0.00,weatherlink.com 1.10,2013-07-11 16:17:00,
2013-07-11 12:32:00,77.4,68.0,29.88,NNE,24,1.0,-999.0,73,-99.99,,,0.00,weatherlink.com 1.10,2013-07-11 16:32:00,
2013-07-11 12:47:00,78.4,70.0,29.88,South,188,0.0,-999.0,76,-99.99,,,0.00,weatherlink.com 1.10,2013-07-11 16:47:00,
2013-07-11 13:03:00,78.9,70.0,29.87,NW,324,1.0,-999.0,74,-99.99,,,0.00,weatherlink.com 1.10,2013-07-11 17:03:00,
2013-07-11 13:33:00,80.7,71.0,29.87,WSW,242,1.0,-999.0,71,-99.99,,,0.00,weatherlink.com 1.10,2013-07-11 17:33:00,
2013-07-11 13:50:00,79.5,69.0,29.86,WSW,249,0.0,-999.0,71,-99.99,,,0.00,weatherlink.com 1.10,2013-07-11 17:50:00,
2013-07-11 14:05:00,79.6,70.0,29.86,West,267,0.0,-999.0,73,-99.99,,,0.00,weatherlink.com 1.10,2013-07-11 18:05:00,
2013-07-11 14:23:00,81.3,70.0,29.86,WNW,284,0.0,-999.0,69,-99.99,,,0.00,weatherlink.com 1.10,2013-07-11 18:23:00,
2013-07-11 14:35:00,81.0,71.0,29.86,SE,128,0.0,-999.0,72,-99.99,,,0.00,weatherlink.com 1.10,2013-07-11 18:35:00,
2013-07-11 14:50:00,80.3,70.0,29.86,SE,128,0.0,-999.0,71,-99.99,,,0.00,weatherlink.com 1.10,2013-07-11 18:50:00,
2013-07-11 15:05:00,80.2,70.0,29.86,ENE,60,0.0,-999.0,71,-99.99,,,0.00,weatherlink.com 1.10,2013-07-11 19:05:00,
2013-07-11 15:20:00,80.3,72.0,29.86,ENE,60,0.0,-999.0,75,-99.99,,,0.00,weatherlink.com 1.10,2013-07-11 19:20:00,
2013-07-11 15:35:00,80.6,70.0,29.85,ENE,60,0.0,-999.0,71,-99.99,,,0.00,weatherlink.com 1.10,2013-07-11 19:35:00,
2013-07-11 15:51:00,80.6,72.0,29.85,ENE,60,0.0,-999.0,76,-99.99,,,0.00,weatherlink.com 1.10,2013-07-11 19:51:00,
2013-07-11 16:21:00,82.1,71.0,29.85,East,100,0.0,-999.0,70,-99.99,,,0.00,weatherlink.com 1.10,2013-07-11 20:21:00,
2013-07-11 16:37:00,82.9,70.0,29.85,East,100,0.0,-999.0,66,-99.99,,,0.00,weatherlink.com 1.10,2013-07-11 20:37:00,
2013-07-11 16:52:00,82.5,69.0,29.85,East,100,0.0,-999.0,64,-99.99,,,0.00,weatherlink.com 1.10,2013-07-11 20:52:00,
2013-07-11 17:07:00,81.9,71.0,29.85,East,100,0.0,-999.0,69,-99.99,,,0.00,weatherlink.com 1.10,2013-07-11 21:07:00,
2013-07-11 17:22:00,80.3,71.0,29.85,East,100,0.0,-999.0,72,-99.99,,,0.00,weatherlink.com 1.10,2013-07-11 21:22:00,
2013-07-11 17:38:00,81.6,72.0,29.86,East,100,0.0,-999.0,73,-99.99,,,0.00,weatherlink.com 1.10,2013-07-11 21:38:00,
2013-07-11 17:53:00,82.0,72.0,29.86,East,100,0.0,-999.0,71,-99.99,,,0.00,weatherlink.com 1.10,2013-07-11 21:53:00,
2013-07-11 18:08:00,81.7,73.0,29.86,East,100,0.0,-999.0,74,-99.99,,,0.00,weatherlink.com 1.10,2013-07-11 22:08:00,
2013-07-11 18:38:00,78.8,71.0,29.87,East,100,0.0,-999.0,76,-99.99,,,0.00,weatherlink.com 1.10,2013-07-11 22:38:00,
2013-07-11 18:55:00,78.0,70.0,29.88,East,100,0.0,-999.0,77,-99.99,,,0.00,weatherlink.com 1.10,2013-07-11 22:55:00,
2013-07-11 19:10:00,77.4,70.0,29.88,East,100,0.0,-999.0,77,-99.99,,,0.00,weatherlink.com 1.10,2013-07-11 23:10:00,
2013-07-11 19:25:00,76.8,69.0,29.88,East,100,0.0,-999.0,77,-99.99,,,0.00,weatherlink.com 1.10,2013-07-11 23:25:00,
2013-07-11 19:40:00,76.2,69.0,29.89,East,97,0.0,-999.0,77,-99.99,,,0.00,weatherlink.com 1.10,2013-07-11 23:40:00,
2013-07-11 19:55:00,76.3,67.0,29.89,East,94,5.0,-999.0,73,-99.99,,,0.00,weatherlink.com 1.10,2013-07-11 23:55:00,
2013-07-11 20:10:00,76.3,66.0,29.89,East,98,5.0,-999.0,71,-99.99,,,0.00,weatherlink.com 1.10,2013-07-12 00:10:00,
2013-07-11 20:25:00,76.0,65.0,29.90,NNE,29,0.0,-999.0,68,-99.99,,,0.00,weatherlink.com 1.10,2013-07-12 00:25:00,
2013-07-11 20:41:00,75.7,64.0,29.90,NE,46,0.0,-999.0,67,-99.99,,,0.00,weatherlink.com 1.10,2013-07-12 00:41:00,
2013-07-11 21:12:00,74.7,63.0,29.91,WNW,289,0.0,-999.0,67,-99.99,,,0.00,weatherlink.com 1.10,2013-07-12 01:12:00,
2013-07-11 21:27:00,74.4,62.0,29.91,NNE,28,1.0,-999.0,66,-99.99,,,0.00,weatherlink.com 1.10,2013-07-12 01:27:00,
2013-07-11 21:42:00,74.4,62.0,29.91,ENE,59,0.0,-999.0,65,-99.99,,,0.00,weatherlink.com 1.10,2013-07-12 01:42:00,
2013-07-11 21:57:00,74.3,61.0,29.91,East,93,2.0,-999.0,64,-99.99,,,0.00,weatherlink.com 1.10,2013-07-12 01:57:00,
2013-07-11 22:12:00,74.1,61.0,29.92,NE,34,4.0,-999.0,64,-99.99,,,0.00,weatherlink.com 1.10,2013-07-12 02:12:00,
2013-07-11 22:28:00,74.1,61.0,29.91,NE,39,0.0,-999.0,63,-99.99,,,0.00,weatherlink.com 1.10,2013-07-12 02:28:00,
2013-07-11 22:58:00,73.6,60.0,29.91,NNE,26,1.0,-999.0,63,-99.99,,,0.00,weatherlink.com 1.10,2013-07-12 02:58:00,
2013-07-11 23:13:00,73.4,60.0,29.91,ENE,65,1.0,-999.0,63,-99.99,,,0.00,weatherlink.com 1.10,2013-07-12 03:13:00,
2013-07-11 23:45:00,73.1,60.0,29.91,North,350,1.0,-999.0,64,-99.99,,,0.00,weatherlink.com 1.10,2013-07-12 03:45:00,